GW5208 Weather Reports


Display with metric or nautical units.
time (UTC)temp
F
wind
direction
speed
MPH
gust
MPH
rain 1hr
in
rain 24hr
in
rain mn
in
humidity
%
barometer
mb
20260505121512 37 56 3.0 6.0 0.00 0.00 0.00 64 1019.9
20260505120023 37 67 4.0 7.0 0.00 0.00 0.00 62 1019.8
20260505114523 38 60 2.0 5.0 0.00 0.00 0.00 61 1019.8
20260505113024 38 41 3.0 6.0 0.00 0.00 0.00 60 1019.7
20260505111512 38 61 3.0 7.0 0.00 0.00 0.00 59 1019.7
20260505101527 41 12 1.0 4.0 0.00 0.00 0.00 54 1019.4
20260505100014 41 321 2.0 5.0 0.00 0.00 0.00 56 1019.3
20260505094520 40 311 1.0 5.0 0.00 0.00 0.00 54 1019.1
20260505093004 40 347 2.0 4.0 0.00 0.00 0.00 53 1019.0
20260505091507 40 298 1.0 3.0 0.00 0.00 0.00 51 1018.9
20260505090011 40 337 2.0 5.0 0.00 0.00 0.00 51 1018.8
20260505084537 40 328 1.0 4.0 0.00 0.00 0.00 51 1018.8
20260505083005 40 298 1.0 3.0 0.00 0.00 0.00 52 1018.8
20260505081511 40 334 1.0 3.0 0.00 0.00 0.00 51 1018.9
20260505080011 40 331 0.0 2.0 0.00 0.00 0.00 50 1018.9
20260505074515 40 354 0.0 3.0 0.00 0.00 0.00 49 1019.1
20260505073020 40 65 0.0 1.0 0.00 0.00 0.00 48 1019.1
20260505071505 41 65 0.0 2.0 0.00 0.00 0.00 47 1019.1
20260505070009 41 65 1.0 4.0 0.00 0.00 0.00 47 1019.2
20260505064511 41 63 3.0 6.0 0.00 0.00 0.00 47 1019.1
20260505063023 41 74 2.0 3.0 0.00 0.00 0.00 47 1018.8
20260505061525 41 83 0.0 2.0 0.00 0.00 0.00 47 1018.4
20260505060009 41 83 2.0 3.0 0.00 0.00 0.00 47 1018.3
20260505054510 41 78 2.0 6.0 0.00 0.00 0.00 47 1018.4
20260505053020 41 77 3.0 5.0 0.00 0.00 0.00 46 1018.2
20260505051520 42 79 0.0 4.0 0.00 0.00 0.00 46 1018.2
20260505041518 41 72 4.0 5.0 0.00 0.00 0.00 45 1018.1
20260505040024 41 68 3.0 5.0 0.00 0.00 0.00 44 1018.1
20260505034528 42 75 4.0 6.0 0.00 0.00 0.00 42 1017.9
20260505033008 43 70 6.0 8.0 0.00 0.00 0.00 41 1017.7
20260505031516 44 70 5.0 9.0 0.00 0.00 0.00 37 1017.4
20260505030022 46 53 4.0 7.0 0.00 0.00 0.00 33 1017.1
20260505024526 47 57 6.0 12.0 0.00 0.00 0.00 31 1016.9
20260505023027 49 48 6.0 11.0 0.00 0.00 0.00 28 1016.7
20260505021514 50 32 6.0 11.0 0.00 0.00 0.00 26 1016.5
20260505020018 51 51 7.0 12.0 0.00 0.00 0.00 24 1016.4
20260505014524 53 34 4.0 9.0 0.00 0.00 0.00 22 1016.2
20260505013027 54 307 4.0 13.0 0.00 0.00 0.00 22 1016.1
20260505011546 55 311 4.0 13.0 0.00 0.00 0.00 22 1016.0
20260505010014 55 340 5.0 15.0 0.00 0.00 0.00 21 1016.1
20260505004503 55 316 5.0 16.0 0.00 0.00 0.00 22 1016.2
20260505003006 56 356 5.0 15.0 0.00 0.00 0.00 22 1016.2
20260505001503 56 1 5.0 11.0 0.00 0.00 0.00 23 1016.2
20260505000008 56 338 5.0 19.0 0.00 0.00 0.00 23 1016.2
20260504234507 56 43 5.0 16.0 0.00 0.00 0.00 23 1016.2
20260504233004 55 32 6.0 11.0 0.00 0.00 0.00 26 1016.3
20260504231508 55 20 6.0 13.0 0.00 0.00 0.00 27 1016.4
20260504230008 56 311 8.0 21.0 0.00 0.00 0.00 27 1016.4
20260504224512 55 328 5.0 15.0 0.00 0.00 0.00 29 1016.2
20260504223013 55 323 5.0 10.0 0.00 0.00 0.00 30 1016.3
20260504221509 54 332 6.0 11.0 0.00 0.00 0.00 32 1016.5
20260504220008 55 30 5.0 10.0 0.00 0.00 0.00 32 1016.4
20260504214510 54 335 6.0 13.0 0.00 0.00 0.00 33 1016.3
20260504213012 54 32 5.0 13.0 0.00 0.00 0.00 32 1016.4
20260504211511 54 40 5.0 15.0 0.00 0.00 0.00 31 1016.5
20260504210018 54 357 7.0 17.0 0.00 0.00 0.00 30 1016.4
20260504204512 55 337 7.0 17.0 0.00 0.00 0.00 28 1016.5
20260504203012 55 315 9.0 19.0 0.00 0.00 0.00 29 1016.4
20260504201511 56 340 7.0 17.0 0.00 0.00 0.00 29 1016.3
20260504200008 55 343 9.0 16.0 0.00 0.00 0.00 30 1016.2
20260504194517 56 359 9.0 17.0 0.00 0.00 0.00 29 1016.2
20260504193017 55 313 7.0 16.0 0.00 0.00 0.00 31 1016.2
20260504191519 54 310 10.0 18.0 0.00 0.00 0.00 32 1016.4
20260504190023 55 43 6.0 15.0 0.00 0.00 0.00 31 1016.4
20260504184510 55 343 6.0 17.0 0.00 0.00 0.00 32 1016.4
20260504183018 56 34 5.0 17.0 0.00 0.00 0.00 32 1016.5
20260504181516 55 332 9.0 22.0 0.00 0.00 0.00 32 1016.5
20260504180018 55 314 8.0 16.0 0.00 0.00 0.00 34 1016.6
20260504174520 54 329 6.0 15.0 0.00 0.00 0.00 35 1016.8
20260504173018 54 329 8.0 16.0 0.00 0.00 0.00 36 1016.6
20260504171530 53 295 8.0 14.0 0.00 0.00 0.00 38 1016.7